[[{"header":{"parameterUnit":"m.s-1","parameterCategory":1,"la1":30.2991,"la2":30.254,"lo1":-89.0895,"lo2":-89.0444,"dy":0.0017,"dx":0.0017,"nx":28,"ny":28,"refTime":"2024-04-07T09:00:00:Z","depth":0,"parameterNumber":2,"parameterNumberName":"U-component_of_WINDS"},"data":[0,0,0,0,0,0,0,0,0,0,0,0,0,0,0,0,0,0,0,0,0,0,0,0,0,0,0,0,0,0,0,0,0,0,0,0,0,0,0,0,0,0,0,0,0,0,0,0,0,0,0,0,0,0,0,0,0,0,-2.9372,-2.9373,0,-2.9408,-2.9408,-2.9409,-2.9309,-2.9306,-2.9303,-2.93,-2.9338,-2.9342,-2.9346,0,0,0,0,0,0,0,0,0,0,0,0,0,-2.9222,-2.9225,-2.9372,-2.9373,-2.9373,-2.9408,-2.9408,-2.9409,-2.931,-2.9306,-2.9302,-2.9299,-2.9337,-2.9342,-2.9346,0,0,0,0,0,0,0,0,0,0,0,0,0,-2.9275,-2.9226,-2.9372,-2.9328,-2.9324,-2.9408,-2.9408,-2.9409,-2.931,-2.9306,-2.9301,-2.9297,-2.9335,-2.9341,-2.9347,-2.9476,0,0,-2.9365,-2.9367,0,0,0,0,0,0,0,0,-2.9272,-2.9281,-2.9334,-2.9331,-2.9327,-2.9349,-2.9369,-2.9431,-2.9312,-2.9316,-2.93,-2.9295,-2.9346,-2.9351,-2.9367,-2.9477,-2.9479,-2.9365,-2.9369,-2.9371,-2.9373,0,0,0,0,0,0,0,-2.9269,-2.9279,-2.9386,-2.9335,-2.9331,-2.9307,-2.931,-2.938,-2.9356,-2.9315,-2.9308,-2.9313,-2.9343,-2.9362,-2.9368,-2.948,-2.9365,-2.937,-2.9374,-2.9376,-2.9698,-2.9703,0,0,0,0,0,0,-2.927,-2.9276,-2.9385,-2.9388,-2.9288,-2.9314,-2.9316,-2.9347,-2.9355,-2.9352,-2.9317,-2.9309,-2.9354,-2.9361,-2.9369,-2.952,-2.9371,-2.9377,-2.938,-2.9693,-2.9699,-2.9705,0,0,0,0,0,0,-2.9268,-2.9281,-2.9384,-2.933,-2.9341,-2.9321,-2.9356,-2.935,-2.9369,-2.9357,-2.9352,-2.9341,-2.9351,-2.936,-2.945,-2.952,-2.9379,-2.9385,-2.9687,-2.9695,-2.9702,-2.9823,0,0,0,0,0,0,-2.9264,-2.9281,-2.9328,-2.9332,-2.9345,-2.9464,-2.9361,-2.9354,-2.9379,-2.9368,-2.9378,-2.9375,-2.9348,-2.9442,-2.9456,-2.9525,-2.9389,-2.9681,-2.9691,-2.97,-2.9813,-2.9834,-2.9852,0,0,0,0,0,-2.9259,-2.9361,-2.9331,-2.9345,-2.9404,-2.9468,-2.9475,-2.9441,-2.9385,-2.9433,-2.9426,-2.9375,-2.951,-2.9452,-2.9467,-2.9539,-2.9676,-2.9688,-2.9699,-2.9804,-2.983,-2.9851,0,0,0,0,0,0,-2.9366,-2.9361,-2.9327,-2.9434,-2.9452,-2.9451,-2.951,-2.947,-2.9505,-2.9493,-2.9451,-2.9454,-2.9551,-2.9554,-2.9489,-2.9665,-2.9584,-2.9599,-2.9658,-2.9683,-2.9702,-2.9698,-2.9394,0,0,0,0,0,-2.9402,-2.9454,-2.9447,-2.9542,-2.9553,-2.9531,-2.9557,-2.953,-2.9547,-2.9555,-2.9554,-2.9574,-2.962,-2.9652,-2.9695,-2.9814,-2.9815,-2.9871,-2.9891,-2.9907,-2.992,-2.9983,-3.0008,-2.9742,-2.9742,-2.9742,0,0,-2.9477,-2.9481,-2.9516,-2.9564,-2.9574,-2.963,-2.9538,-2.96,-2.9641,-2.9564,-2.9648,-2.9649,-2.9668,-2.9773,-2.982,-2.9779,-2.9994,-2.9921,-2.9934,-2.9938,-2.9998,-3.0023,-3.0045,-2.975,-2.9749,-2.9747,0,0,-2.9642,-2.965,-2.973,-2.9743,-2.9761,-2.9746,-2.9766,-2.9772,-2.9769,-2.9853,-2.9797,-2.9846,-2.9928,-2.9944,-2.9963,-3.0137,-3.0091,-3.0153,-3.0254,-3.0317,-3.0338,-3.0356,-3.0418,-3.044,-3.0166,-3.0166,-3.0166,0,-2.9732,-2.9813,-2.9776,-2.9843,-2.9866,-2.98,-2.9881,-2.9896,-2.9927,-2.9945,-2.9899,-3.0001,-3.001,-3.0118,-3.0161,-3.0179,-3.02,-3.015,-3.0338,-3.0356,-3.0372,-3.0431,-3.0454,-3.0173,-3.0172,-3.0172,-3.0171,0,-2.9923,-2.9981,-3.0043,-3.0075,-3.0106,-3.0179,-3.0155,-3.019,-3.0162,-3.0152,-3.024,-3.0248,-3.0291,-3.0316,-3.0288,-3.0421,-3.0395,-3.0345,-3.0262,-3.0405,-3.0459,-3.0482,-3.0184,-3.0181,-3.0179,-3.0177,0,0,-3.0153,-3.0166,-3.0189,-3.0203,-3.022,-3.0263,-3.0336,-3.0378,-3.0409,-3.0435,-3.0494,-3.0566,-3.052,-3.0542,-3.0516,-3.0572,-3.0709,-3.0514,-3.0514,-3.0549,-3.0856,-3.0892,-3.0919,-3.068,-3.0684,-3.0688,-3.0854,0,-3.0314,-3.0436,-3.0406,-3.0527,-3.058,-3.052,-3.0583,-3.0601,-3.0595,-3.064,-3.0634,-3.0685,-3.0621,-3.0634,-3.0686,-3.0681,-3.077,-3.0669,-3.0735,-3.0738,-3.0729,-3.0947,-3.0985,-3.1141,-3.0875,-3.0878,-3.0881,0,-3.0517,-3.055,-3.0676,-3.0686,-3.0707,-3.0764,-3.0801,-3.0845,-3.0865,-3.0857,-3.0883,-3.0847,-3.0919,-3.0839,-3.0938,-3.0871,-3.0897,-3.0899,-3.0904,-3.0907,-3.0816,-3.0954,-3.119,-3.1213,-3.0914,-3.0911,-3.0909,0,-3.067,-3.0747,-3.0832,-3.0846,-3.086,-3.0901,-3.0909,-3.0925,-3.0953,-3.0986,-3.1004,-3.1046,-3.1069,-3.1103,-3.108,-3.1024,-3.1184,-3.1101,-3.1179,-3.118,-3.1213,-3.1211,-3.1455,-3.1234,-3.1234,-3.1233,-3.1233,0,-3.0851,-3.0931,-3.0901,-3.0954,-3.1042,-3.1009,-3.1097,-3.1098,-3.1113,-3.1165,-3.1118,-3.1168,-3.1136,-3.1184,-3.1167,-3.1253,-3.1264,-3.1259,-3.1253,-3.1262,-3.1263,-3.1277,-3.1264,-3.1239,-3.1238,-3.1237,-3.1236,0,-3.1035,-3.1019,-3.1108,-3.1115,-3.1119,-3.1183,-3.1189,-3.1238,-3.1231,-3.1298,-3.1312,-3.1299,-3.1354,-3.1336,-3.1394,-3.1383,-3.1491,-3.1473,-3.1484,-3.1479,-3.1557,-3.155,-3.1817,-3.185,-3.161,-3.1612,-3.1614,0,-3.1151,-3.1211,-3.1224,-3.1256,-3.1267,-3.1319,-3.1348,-3.1319,-3.1351,-3.138,-3.1426,-3.1477,-3.1515,-3.1606,-3.1603,-3.1649,-3.1629,-3.172,-3.1636,-3.1643,-3.1629,-3.1625,-3.163,-3.1736,-3.1739,-3.1741,-3.1743,0,-3.1357,-3.1347,-3.1389,-3.1431,-3.1467,-3.1498,-3.1524,-3.1553,-3.1527,-3.1566,-3.1621,-3.1651,-3.1712,-3.1763,-3.1805,-3.1814,-3.1775,-3.177,-3.179,-3.1799,-3.1802,-3.18,-3.1528,-3.1763,-3.1761,-3.176,-3.1759,-3.1758,-3.1509,-3.156,-3.1578,-3.1628,-3.1645,-3.1672,-3.1719,-3.1718,-3.1763,-3.181,-3.1792,-3.1856,-3.1877,-3.1928,-3.1944,-3.1994,-3.1959,-3.1988,-3.1995,-3.2003,-3.2012,-3.1797,-3.2002,-3.2001,-3.2001,-3.2,-3.2,0,-3.1711,-3.1721,-3.1767,-3.1807,-3.1847,-3.1808,-3.1836,-3.1872,-3.1929,-3.1952,-3.1992,-3.2056,-3.2107,-3.2109,-3.2156,-3.2196,-3.2179,-3.2209,-3.2205,-3.2208,-3.2041,-3.2018,-3.2222,-3.2222,-3.2222,-3.2222,-3.2222,-3.2222,-3.1821,-3.1904,-3.1897,-3.199,-3.1999,-3.2061,-3.2081,-3.2106,-3.2124,-3.2198,-3.224,-3.2241,-3.2256,-3.2305,-3.235,-3.2349,-3.2368,-3.2405,-3.2397,-3.2241,-3.2219,-3.2198,-3.2176,-3.241,-3.241,-3.2559,-3.256,-3.2561]},{"header":{"parameterUnit":"m.s-1","parameterCategory":1,"la1":30.2991,"la2":30.254,"lo1":-89.0895,"lo2":-89.0444,"dy":0.0017,"dx":0.0017,"nx":28,"ny":28,"refTime":"2024-04-07T09:00:00:Z","depth":0,"parameterNumber":3,"parameterNumberName":"V-component_of_WINDS"},"data":[0,0,0,0,0,0,0,0,0,0,0,0,0,0,0,0,0,0,0,0,0,0,0,0,0,0,0,0,0,0,0,0,0,0,0,0,0,0,0,0,0,0,0,0,0,0,0,0,0,0,0,0,0,0,0,0,0,0,2.3794,2.3793,0,2.3674,2.3673,2.3672,2.3505,2.3502,2.3499,2.3496,2.3373,2.3372,2.3372,0,0,0,0,0,0,0,0,0,0,0,0,0,2.3879,2.3878,2.3794,2.3793,2.3791,2.3675,2.3673,2.3671,2.3505,2.3502,2.3498,2.3495,2.3373,2.3372,2.3371,0,0,0,0,0,0,0,0,0,0,0,0,0,2.3809,2.3878,2.3794,2.3694,2.3684,2.3675,2.3673,2.3671,2.3506,2.3502,2.3497,2.3493,2.3373,2.3372,2.3371,2.345,0,0,2.3368,2.3368,0,0,0,0,0,0,0,0,2.3813,2.3806,2.371,2.3701,2.369,2.36,2.3657,2.3597,2.3507,2.3574,2.3496,2.3491,2.3452,2.3444,2.3431,2.3445,2.3439,2.3368,2.3368,2.3367,2.3367,0,0,0,0,0,0,0,2.3818,2.381,2.3747,2.3709,2.3697,2.3655,2.3641,2.3645,2.3538,2.3567,2.3555,2.3543,2.3445,2.3432,2.3427,2.3437,2.3368,2.3367,2.3367,2.3366,2.3511,2.3515,0,0,0,0,0,0,2.3838,2.3816,2.375,2.3743,2.3742,2.3657,2.3641,2.3633,2.3537,2.3519,2.3547,2.3536,2.3436,2.3428,2.3422,2.3508,2.3367,2.3366,2.3366,2.3506,2.3512,2.3516,0,0,0,0,0,0,2.3841,2.3834,2.3755,2.3776,2.3763,2.366,2.3653,2.3633,2.362,2.3522,2.3502,2.3553,2.3432,2.3423,2.3445,2.3501,2.3366,2.3365,2.3501,2.3508,2.3514,2.3682,0,0,0,0,0,0,2.3844,2.3836,2.3865,2.3778,2.3762,2.3781,2.3656,2.3634,2.3619,2.3603,2.3523,2.3505,2.3428,2.3447,2.3444,2.3498,2.3364,2.3495,2.3504,2.3512,2.367,2.3693,2.3712,0,0,0,0,0,2.3847,2.3916,2.3867,2.386,2.3796,2.3784,2.3775,2.3686,2.3624,2.3652,2.359,2.3508,2.3496,2.3451,2.3446,2.35,2.3491,2.3502,2.3511,2.3661,2.3689,2.3712,0,0,0,0,0,0,2.4011,2.3903,2.3847,2.389,2.3848,2.3756,2.3789,2.3718,2.3692,2.3678,2.3568,2.3551,2.3587,2.3545,2.3497,2.3572,2.3482,2.3491,2.3597,2.3623,2.3643,2.3652,2.3363,0,0,0,0,0,2.4053,2.4052,2.3957,2.4004,2.3986,2.3892,2.3883,2.3818,2.377,2.3751,2.3689,2.3646,2.3632,2.3625,2.3607,2.3664,2.3644,2.3699,2.372,2.3738,2.3747,2.3775,2.3798,2.3549,2.3549,2.3549,0,0,2.4138,2.4078,2.4084,2.4036,2.3995,2.3997,2.3878,2.3884,2.3885,2.3751,2.3768,2.3723,2.3666,2.3706,2.3721,2.3673,2.3812,2.3751,2.3766,2.3765,2.3787,2.3811,2.3832,2.3556,2.3554,2.3553,0,0,2.4293,2.4249,2.4283,2.4245,2.4186,2.4123,2.4132,2.4052,2.4016,2.4032,2.3932,2.3931,2.391,2.3874,2.3853,2.3998,2.3922,2.3995,2.4104,2.4133,2.4152,2.4169,2.4221,2.4241,2.4005,2.4005,2.4006,0,2.4406,2.4405,2.4309,2.4323,2.4304,2.4185,2.4219,2.4188,2.4126,2.4116,2.4064,2.4036,2.3989,2.4019,2.4055,2.4042,2.4049,2.4003,2.4157,2.4173,2.4187,2.4235,2.4255,2.4015,2.4014,2.4013,2.4012,0,2.4546,2.4548,2.4582,2.4527,2.4512,2.4536,2.4445,2.4442,2.4379,2.4322,2.434,2.4281,2.4249,2.4252,2.419,2.4274,2.4246,2.4178,2.4084,2.4222,2.4265,2.4283,2.4028,2.4025,2.4022,2.402,0,0,2.4799,2.4692,2.4706,2.468,2.4607,2.4606,2.4626,2.4595,2.4595,2.4557,2.457,2.4557,2.4493,2.447,2.4403,2.4428,2.4547,2.4356,2.4353,2.4393,2.4636,2.4688,2.471,2.4497,2.45,2.4503,2.4641,0,2.494,2.4966,2.4882,2.493,2.493,2.4818,2.4835,2.4792,2.4741,2.4733,2.4675,2.4667,2.4584,2.4569,2.4589,2.4529,2.4594,2.4518,2.4508,2.4509,2.4524,2.4733,2.4787,2.492,2.4657,2.466,2.4662,0,2.5106,2.5078,2.5127,2.5053,2.5049,2.5066,2.5032,2.5027,2.4977,2.4937,2.4913,2.4836,2.485,2.4763,2.478,2.473,2.4721,2.4692,2.4694,2.4689,2.4593,2.4732,2.496,2.498,2.4687,2.4685,2.4684,0,2.5285,2.526,2.5285,2.5267,2.5181,2.5195,2.516,2.5106,2.5094,2.5065,2.5056,2.5029,2.5014,2.4995,2.4913,2.4857,2.4941,2.4846,2.4908,2.4911,2.4929,2.4929,2.5158,2.4926,2.4926,2.4926,2.4925,0,2.545,2.5484,2.5365,2.5381,2.5416,2.532,2.5357,2.5311,2.5264,2.5269,2.5171,2.5178,2.507,2.5066,2.5002,2.5027,2.5021,2.4989,2.4971,2.4997,2.5001,2.4989,2.4977,2.4931,2.493,2.4929,2.4928,0,2.5655,2.5577,2.5597,2.5515,2.5496,2.5525,2.5455,2.5466,2.5409,2.5417,2.5413,2.5324,2.5313,2.5231,2.5201,2.5158,2.5207,2.5171,2.5224,2.5212,2.5278,2.5273,2.5506,2.5532,2.5286,2.5288,2.529,0,2.5764,2.5788,2.571,2.5706,2.5676,2.5672,2.5659,2.5567,2.5557,2.5504,2.5522,2.5504,2.5484,2.5473,2.5405,2.5382,2.5345,2.5429,2.5341,2.5366,2.5346,2.5345,2.5347,2.5447,2.545,2.5453,2.5455,0,2.5967,2.5928,2.5914,2.5887,2.5875,2.585,2.5818,2.5821,2.5718,2.5713,2.5702,2.5687,2.5658,2.5641,2.5607,2.557,2.5496,2.5483,2.5496,2.5522,2.5551,2.5536,2.5274,2.5478,2.5475,2.5474,2.5473,2.5472,2.6127,2.6143,2.6091,2.6079,2.6045,2.6019,2.6026,2.597,2.5959,2.5929,2.5875,2.5872,2.5822,2.5769,2.574,2.5736,2.5692,2.5711,2.5715,2.5721,2.5735,2.5554,2.5729,2.5729,2.5728,2.5727,2.5727,0,2.6324,2.6285,2.6276,2.6235,2.6226,2.6158,2.612,2.6117,2.6115,2.6076,2.606,2.6047,2.6031,2.5964,2.594,2.595,2.5916,2.5947,2.5945,2.5938,2.5776,2.5766,2.5976,2.5976,2.5976,2.5975,2.5975,2.5975,2.6425,2.6449,2.6404,2.6411,2.6372,2.6369,2.6353,2.6328,2.6296,2.6287,2.6274,2.623,2.618,2.6152,2.6135,2.6115,2.6111,2.6154,2.6123,2.5973,2.5949,2.5926,2.5917,2.6154,2.6154,2.6285,2.6286,2.6287]}]]